Location: ShareBrained
(45.5589°N, 122.6491°W)
Time: 10:14:15
(UTC-07:00)

NOAA 19 - Visible Passes

Search period start: 25 July 2024 00:00
Search period end: 04 August 2024 00:00
Orbit: 839 x 859 km, 99.0° (Epoch: 25 July)

Date Brightness Start Highest point End Pass type
(mag) Time Alt. Az. Time Alt. Az. Time Alt. Az.
25 Jul 5.5 21:20:08 10° SE 21:25:31 54° ENE 21:30:53 10° N visible
25 Jul 7.1 23:02:06 10° SW 23:06:27 23° W 23:10:49 10° NW visible
26 Jul 6.8 22:49:12 10° SSW 22:53:59 29° W 22:58:46 10° NW visible
27 Jul 6.4 22:36:27 10° SSW 22:41:32 37° W 22:46:38 10° NNW visible
28 Jul 6.1 22:23:48 10° S 22:29:06 47° W 22:34:27 10° NNW visible
29 Jul 5.7 22:11:15 10° S 22:16:43 60° WSW 22:22:11 10° NNW visible
30 Jul 5.4 21:58:48 10° S 22:04:20 75° WSW 22:09:52 10° NNW visible
30 Jul 7.8 23:44:51 10° W 23:45:51 10° W 23:46:52 10° WNW visible
31 Jul 5.2 21:46:26 10° SSE 21:51:58 87° ENE 21:57:31 10° NNW visible
31 Jul 7.6 23:30:31 10° WSW 23:33:18 14° W 23:36:05 10° WNW visible
01 Aug 5.3 21:34:09 10° SSE 21:39:38 70° ENE 21:45:07 10° N visible
01 Aug 7.4 23:17:06 10° SW 23:20:46 18° W 23:24:27 10° NW visible
02 Aug 5.5 21:21:56 10° SE 21:27:19 55° ENE 21:32:42 10° N visible
02 Aug 7.1 23:03:59 10° SW 23:08:16 23° W 23:12:34 10° NW visible
03 Aug 5.7 21:09:49 10° SE 21:15:01 44° ENE 21:20:13 10° N visible
03 Aug 6.8 22:51:04 10° SSW 22:55:48 29° W 23:00:32 10° NW visible
